Mount Pleasant, MI

11:15 PM EDT on September 21, 2017 (GMT -0400)
Mount Pleasant Municipal

Weather History for KMOP - December, 2013

Change the Weather History Date:

Thursday, December 26, 2013

  Actual Average (KAMN) Record (KAMN)
Temperature  
Mean Temperature 22 °F -  
Max Temperature 24 °F 29 °F 65 °F (1982)
Min Temperature 20 °F 13 °F -7 °F (2000)
Degree Days  
Heating Degree Days 43    
Moisture  
Dew Point 18 °F    
Average Humidity 82    
Maximum Humidity 91    
Minimum Humidity 64    
Precipitation  
Precipitation 0.00 in - - ()
Sea Level Pressure  
Sea Level Pressure 30.10 in    
Wind  
Wind Speed 5 mph (SW)    
Max Wind Speed 14 mph    
Max Gust Speed 17 mph    
Visibility 7 miles    
Events Snow    
Averages and records for this station are not official NWS values.
T = Trace of Precipitation, MM = Missing Value Source: NWS Daily Summary

Daily Weather History Graph

Daily Weather History Graph

Search for Another Location

Airport or City:

Trip Planner

Search our weather history database for the weather conditions in past years. The results will help you decide how hot, cold, wet, or windy it might be!

Date:

Astronomy

Dec. 26, 2013 Rise Set
Actual Time 8:11 AM EST 5:08 PM EST
Civil Twilight 7:38 AM EST 5:41 PM EST
Nautical Twilight 7:02 AM EST 6:17 PM EST
Astronomical Twilight 6:27 AM EST 6:52 PM EST
Moon 1:30 AM EST (12/26) 12:50 PM EST (12/26)
Length of Visible Light 10h 02m
Length of Day
8h 56m
Last Quarter, 38% of the Moon is Illuminated
Dec 26
Last Quarter
Jan 1
New
Jan 7
First Quarter
Jan 15
Full
Jan 24
Last Quarter

Hourly Weather History & Observations

Time (EST) Temp. Windchill Dew Point Humidity Pressure Visibility Wind Dir Wind Speed Gust Speed Precip Events Conditions
12:15 AM 23.9 °F 16.8 °F 21.0 °F 89% 30.01 in 4.0 mi South 5.8 mph - N/A Snow Light Snow
12:34 AM 23.9 °F 16.8 °F 21.2 °F 89% 30.00 in 2.5 mi South 5.8 mph - N/A Snow Light Snow
12:55 AM 23.9 °F 19.5 °F 21.2 °F 89% 29.99 in 3.0 mi South 3.5 mph - N/A Snow Light Snow
1:15 AM 23.9 °F 18.0 °F 21.2 °F 89% 29.98 in 4.0 mi South 4.6 mph - N/A Snow Light Snow
1:34 AM 23.9 °F - 21.2 °F 89% 29.98 in 2.5 mi Calm Calm - N/A Snow Light Snow
1:55 AM 23.7 °F - 21.2 °F 90% 29.98 in 3.0 mi Calm Calm - N/A Snow Light Snow
2:15 AM 23.7 °F - 21.2 °F 90% 29.98 in 3.0 mi Calm Calm - N/A Snow Light Snow
2:34 AM 23.7 °F - 21.2 °F 90% 29.98 in 2.5 mi Calm Calm - N/A Snow Light Snow
2:55 AM 23.5 °F - 21.4 °F 91% 29.98 in 1.8 mi Calm Calm - N/A Snow Light Snow
3:15 AM 23.7 °F - 21.6 °F 91% 29.98 in 2.5 mi Calm Calm - N/A Snow Light Snow
3:34 AM 23.5 °F - 21.2 °F 91% 29.97 in 4.0 mi Calm Calm - N/A Snow Light Snow
3:55 AM 23.4 °F - 21.2 °F 91% 29.97 in 3.0 mi Calm Calm - N/A Snow Light Snow
4:15 AM 23.4 °F - 21.2 °F 91% 29.97 in 2.0 mi Calm Calm - N/A Snow Light Snow
4:34 AM 23.4 °F 17.4 °F 21.2 °F 91% 29.97 in 3.0 mi SW 4.6 mph - N/A Snow Light Snow
4:55 AM 23.4 °F 17.4 °F 21.0 °F 91% 29.97 in 4.0 mi SW 4.6 mph - N/A Snow Light Snow
5:15 AM 23.7 °F 15.6 °F 21.2 °F 90% 29.98 in 3.0 mi WSW 6.9 mph - N/A Snow Light Snow
5:35 AM 23.9 °F 16.8 °F 21.2 °F 89% 29.98 in 3.0 mi WSW 5.8 mph - N/A Snow Light Snow
5:55 AM 23.9 °F 16.8 °F 21.2 °F 89% 29.99 in 3.0 mi West 5.8 mph - N/A Snow Light Snow
6:15 AM 23.9 °F 16.8 °F 21.2 °F 89% 30.00 in 2.5 mi WSW 5.8 mph - N/A Snow Light Snow
6:35 AM 23.9 °F 16.8 °F 21.2 °F 89% 30.01 in 2.5 mi WSW 5.8 mph - N/A Snow Light Snow
6:55 AM 23.9 °F 16.8 °F 21.2 °F 89% 30.02 in 7.0 mi WSW 5.8 mph - N/A Snow Light Snow
7:15 AM 23.9 °F 16.8 °F 20.7 °F 87% 30.02 in 5.0 mi WSW 5.8 mph - N/A Snow Light Snow
7:35 AM 23.7 °F 16.6 °F 20.3 °F 87% 30.03 in 5.0 mi WSW 5.8 mph - N/A Snow Light Snow
7:55 AM 23.9 °F 15.8 °F 20.3 °F 86% 30.04 in 4.0 mi WSW 6.9 mph - N/A Snow Light Snow
8:15 AM 23.7 °F 12.6 °F 19.9 °F 85% 30.05 in 4.0 mi WSW 11.5 mph - N/A Snow Light Snow
8:35 AM 23.0 °F 12.4 °F 19.4 °F 86% 30.06 in 3.0 mi WSW 10.4 mph - N/A Snow Light Snow
8:55 AM 23.0 °F 13.1 °F 19.2 °F 85% 30.07 in 3.0 mi WSW 9.2 mph - N/A Snow Light Snow
9:14 AM 22.8 °F 11.5 °F 18.3 °F 83% 30.09 in 5.0 mi WSW 11.5 mph 16.1 mph N/A Snow Light Snow
9:35 AM 22.5 °F 11.7 °F 16.7 °F 79% 30.09 in 7.0 mi West 10.4 mph 17.3 mph N/A Snow Light Snow
9:55 AM 22.3 °F 12.2 °F 16.0 °F 77% 30.10 in 10.0 mi West 9.2 mph - N/A Snow Light Snow
10:14 AM 22.6 °F 10.7 °F 15.8 °F 75% 30.11 in 10.0 mi West 12.7 mph - N/A   Clear
10:35 AM 22.8 °F 13.6 °F 15.6 °F 74% 30.13 in 10.0 mi West 8.1 mph - N/A Snow Light Snow
10:55 AM 22.5 °F 14.1 °F 15.6 °F 75% 30.14 in 7.0 mi WSW 6.9 mph - N/A Snow Light Snow
11:14 AM 22.8 °F 12.9 °F 15.8 °F 74% 30.15 in 10.0 mi WSW 9.2 mph - N/A   Overcast
11:35 AM 23.4 °F 11.6 °F 15.6 °F 72% 30.15 in 10.0 mi West 12.7 mph 16.1 mph N/A   Overcast
11:55 AM 23.5 °F 13.7 °F 15.4 °F 71% 30.15 in 10.0 mi West 9.2 mph - N/A Snow Light Snow
12:14 PM 23.7 °F 14.0 °F 15.6 °F 71% 30.15 in 10.0 mi West 9.2 mph - N/A Snow Light Snow
12:35 PM 23.0 °F 11.7 °F 14.5 °F 70% 30.16 in 10.0 mi West 11.5 mph 17.3 mph N/A Snow Light Snow
12:55 PM 23.0 °F 13.1 °F 13.5 °F 67% 30.16 in 10.0 mi West 9.2 mph - N/A   Overcast
1:14 PM 23.4 °F 12.2 °F 13.8 °F 67% 30.15 in 10.0 mi WSW 11.5 mph - N/A   Overcast
1:35 PM 23.4 °F 12.2 °F 13.1 °F 65% 30.16 in 10.0 mi WSW 11.5 mph - N/A Snow Light Snow
1:55 PM 23.2 °F 12.0 °F 12.7 °F 64% 30.15 in 10.0 mi WSW 11.5 mph - N/A   Mostly Cloudy
2:14 PM 22.8 °F 15.5 °F 13.1 °F 66% 30.16 in 10.0 mi WSW 5.8 mph - N/A   Mostly Cloudy
2:35 PM 23.0 °F 12.4 °F 14.4 °F 70% 30.16 in 10.0 mi WSW 10.4 mph - N/A   Mostly Cloudy
2:55 PM 23.4 °F 12.2 °F 14.5 °F 69% 30.16 in 10.0 mi WSW 11.5 mph - N/A   Overcast
3:14 PM 23.0 °F 10.6 °F 13.8 °F 68% 30.17 in 10.0 mi SW 13.8 mph - N/A   Overcast
3:35 PM 22.6 °F 11.9 °F 13.5 °F 68% 30.17 in 10.0 mi WSW 10.4 mph - N/A   Mostly Cloudy
3:55 PM 22.1 °F 12.8 °F 14.0 °F 71% 30.18 in 10.0 mi SW 8.1 mph - N/A   Mostly Cloudy
4:14 PM 21.0 °F 11.4 °F 13.5 °F 73% 30.18 in 10.0 mi SW 8.1 mph - N/A   Scattered Clouds
4:35 PM 21.2 °F 12.6 °F 14.0 °F 74% 30.19 in 10.0 mi WSW 6.9 mph - N/A   Mostly Cloudy
4:55 PM 20.7 °F 13.0 °F 13.6 °F 74% 30.18 in 10.0 mi SW 5.8 mph - N/A   Mostly Cloudy
5:15 PM 21.2 °F - 14.7 °F 76% 30.18 in 10.0 mi Calm Calm - N/A   Overcast
5:35 PM 21.2 °F - 14.9 °F 77% 30.18 in 10.0 mi Calm Calm - N/A   Overcast
5:55 PM 21.2 °F - 15.4 °F 78% 30.19 in 10.0 mi Calm Calm - N/A Snow Light Snow
6:15 PM 21.2 °F - 15.6 °F 79% 30.18 in 7.0 mi Calm Calm - N/A Snow Light Snow
6:35 PM 21.2 °F 16.4 °F 16.0 °F 80% 30.19 in 7.0 mi SSE 3.5 mph - N/A Snow Light Snow
6:55 PM 21.2 °F 16.4 °F 16.7 °F 83% 30.19 in 10.0 mi SSE 3.5 mph - N/A Snow Light Snow
7:15 PM 21.2 °F 16.4 °F 16.9 °F 83% 30.19 in 10.0 mi SSE 3.5 mph - N/A   Overcast
7:35 PM 21.9 °F 17.2 °F 18.0 °F 85% 30.19 in 10.0 mi SSE 3.5 mph - N/A   Overcast
7:54 PM 22.5 °F 17.8 °F 18.9 °F 86% 30.19 in 10.0 mi South 3.5 mph - N/A   Overcast
8:15 PM 23.5 °F 17.6 °F 19.9 °F 86% 30.19 in 7.0 mi South 4.6 mph - N/A Snow Light Snow
8:35 PM 23.9 °F 15.8 °F 20.3 °F 86% 30.19 in 7.0 mi South 6.9 mph - N/A Snow Light Snow
8:54 PM 23.9 °F 18.0 °F 20.3 °F 86% 30.19 in 5.0 mi South 4.6 mph - N/A Snow Light Snow
9:15 PM 24.1 °F 17.0 °F 20.5 °F 86% 30.18 in 7.0 mi South 5.8 mph - N/A Snow Light Snow
9:35 PM 24.4 °F 17.5 °F 20.8 °F 86% 30.18 in 7.0 mi South 5.8 mph - N/A   Overcast
9:54 PM 24.4 °F 17.5 °F 20.8 °F 86% 30.18 in 7.0 mi South 5.8 mph - N/A   Overcast
10:15 PM 24.6 °F 17.7 °F 21.0 °F 86% 30.17 in 5.0 mi South 5.8 mph - N/A Snow Light Snow
10:35 PM 24.4 °F 20.1 °F 21.0 °F 87% 30.17 in 5.0 mi South 3.5 mph - N/A Snow Light Snow
10:54 PM 24.6 °F - 21.2 °F 87% 30.18 in 7.0 mi Calm Calm - N/A Snow Light Snow
11:15 PM 24.6 °F - 21.2 °F 87% 30.18 in 7.0 mi Calm Calm - N/A   Overcast
11:35 PM 24.8 °F - 21.6 °F 87% 30.18 in 7.0 mi Calm Calm - N/A   Overcast
11:54 PM 24.8 °F - 21.6 °F 87% 30.18 in 7.0 mi Calm Calm - N/A   Overcast